Regional Weather Roundup
Issued by NWS Charleston, WV

Home | Current Version | Previous Version | Graphics & Text | Print | Product List | Glossary On
Versions: 1 2 3 4 5 6 7 8 9 10 11 12 13 14 15 16 17 18 19 20 21 22 23 24 25 26 27
000
ASUS41 KRLX 260310
RWRRLX
West Virginia Regional Weather Roundup
National Weather Service Charleston WV
1100 PM EDT SAT OCT 25 2014

Note: "fair" indicates few or no clouds below 12,000 feet with no
significant weather and/or obstructions to visibility.

WVZ003-260400-
Northern Panhandle of West Virginia

CITY           SKY/WX    TMP DP  RH WIND       PRES   REMARKS
WHEELING       CLEAR     58  51  78 W10       29.81R
$$

WVZ009-260400-
Northwest West Virginia

CITY           SKY/WX    TMP DP  RH WIND       PRES   REMARKS
PARKERSBURG    CLEAR     62  54  74 W10       29.89R
$$

WVZ006-260400-
Western West Virginia

CITY           SKY/WX    TMP DP  RH WIND       PRES   REMARKS
HUNTINGTON     CLEAR     58  55  90 SW5       29.90F
$$

WVZ015-260400-
West Central West Virginia

CITY           SKY/WX    TMP DP  RH WIND       PRES   REMARKS
CHARLESTON     CLEAR     61  52  72 W10       29.89F
$$

WVZ022-031-260400-
North Central West Virginia

CITY           SKY/WX    TMP DP  RH WIND       PRES   REMARKS
CLARKSBURG     MOCLDY    59  52  77 W10       29.84S
MORGANTOWN     PTCLDY    60  50  69 SW6       29.82S
$$

WVZ025-035-042-045-260400-
Southern West Virginia

CITY           SKY/WX    TMP DP  RH WIND       PRES   REMARKS
BECKLEY        CLEAR     55  48  77 W10       29.94S
LOGAN            N/A     59  54  82 W9        29.95R
BLUEFIELD      CLOUDY    58  48  69 W10       29.97F
LEWISBURG      CLEAR     57  48  70 W8        29.91S
$$

WVZ047-260400-
Northern Mountains of West Virginia

CITY           SKY/WX    TMP DP  RH WIND       PRES   REMARKS
ELKINS         PTCLDY    59  53  80 W14G32    29.86F
$$

WVZ052-260400-
Eastern Panhandle of West Virginia

CITY           SKY/WX    TMP DP  RH WIND       PRES   REMARKS
MARTINSBURG    CLEAR     65  47  52 W22       29.71F
PETERSBURG     PTCLDY    67  46  47 W16G28    29.76F HAZE
$$



USA.gov is the U.S. government's official web portal to all federal, state and local government web resources and services.